Location: Newark
(41.5333°N, 14.5500°E)
Time: 13:25:36
(UTC+00:00)

X-37B - Pass Details

Date: 11 March 2021
Orbit: 380 x 394 km, 45.0° (Epoch: 07 April)

Event Time Altitude Azimuth Distance (km) Brightness Sun altitude
Rises 17:39:34 0° 207° (SSW) 2,256 4.8 -7.5°
Reaches altitude 10° 17:42:05 10° 187° (S) 1,409 3.5 -7.9°
Maximum altitude 17:44:16 17° 143° (SE) 1,061 2.4 -8.4°
Enters shadow 17:46:05 12° 105° (ESE) 1,315 2.6 -8.7°
